Regional Weather Roundup
Issued by NWS

Home | Current Version | Previous Version | Text Only | Print | Product List | Glossary On
Versions: 1 2 3 4 5 6 7 8 9 10 11 12 13 14 15 16 17 18 19 20 21 22 23 24 25 26 27 28 29 30 31 32 33 34 35 36 37 38 39 40 41 42 43 44 45 46 47 48 49 50
000
ASUS43 KFSD 070210
RWRSD

WEATHER ROUNDUP FOR SOUTH DAKOTA
NATIONAL WEATHER SERVICE SIOUX FALLS SD
900 PM CDT MON JUL 06 2015

NOTE: "FAIR" INDICATES FEW OR NO CLOUDS BELOW 12,000 FEET WITH NO
SIGNIFICANT WEATHER AND/OR OBSTRUCTIONS TO VISIBILITY.


SDZ001>005-009-010-012>017-070300-
NORTHWEST AND NORTH CENTRAL SOUTH DAKOTA

CITY           SKY/WX    TMP DP  RH WIND       PRES   REMARKS
BUFFALO          N/A     68  49  50 NE5       30.11S
FAITH            N/A     66  53  63 N5        30.15S
MOBRIDGE       CLEAR     67  58  72 NE7       30.10S HAZE
$$

SDZ012>016-024>037-041>051-057-063-072>074-070300-
SOUTHWEST AND SOUTH CENTRAL SOUTH DAKOTA

CITY           SKY/WX    TMP DP  RH WIND       PRES   REMARKS
RAPID CTY ARPT CLOUDY    67  57  70 NW5       30.18S
PIERRE         CLEAR     67  56  67 N6        30.10R
CUSTER         CLOUDY    57  50  77 E3        30.27S HAZE
ELLSWORTH AFB  MOCLDY    68  53  58 N5        30.17S
PHILIP         CLEAR     70  59  68 NE5       30.13S
PINE RIDGE     MOCLDY    68  54  60 N3        30.18S
SPEARFISH      FAIR      63  55  77 CALM      30.22S
WINNER         FAIR      68  57  68 NE7       30.12R
$$

SDZ004>011-016>023-039-040-070300-
NORTHEAST SOUTH DAKOTA

CITY           SKY/WX    TMP DP  RH WIND       PRES   REMARKS
ABERDEEN       CLEAR     65  53  65 N8        30.11R
WATERTOWN      PTCLDY    62  51  67 NE8       30.10R
BROOKINGS      CLEAR     63  52  67 N6        30.11R
SISSETON         N/A     62  49  62 N10       30.08S
$$

SDZ017-020-022-023-036>040-048>070-070300-
SOUTHEAST SOUTH DAKOTA

CITY           SKY/WX    TMP DP  RH WIND       PRES   REMARKS
SIOUX FALLS    CLEAR     64  54  69 NE10      30.09R
HURON          PTCLDY    66  55  67 NE8       30.09R HAZE
CHAMBERLAIN    CLEAR     67  58  72 NE3       30.11R
MITCHELL       CLEAR     65  58  78 N5        30.09R HAZE
YANKTON        CLEAR     68  55  64 N10       30.06S
$$

ABBREVIATIONS USED IN REMARKS
   TC - TEMPERATURE IN CELSIUS
  WCI - WIND CHILL INDEX
   HX - HEAT INDEX
  VSB - VISIBILITY




USA.gov is the U.S. government's official web portal to all federal, state and local government web resources and services.